www.pogodaiklimat.ru

Погода и климат >> Архив погоды >> Иран >> Bandarabbass


ПОГОДА в Bandarabbass

  • Прогноз погоды в Bandarabbass
  • Монитор погоды в Bandarabbass
  • Климат города

АРХИВ ПОГОДЫ в Bandarabbass

Время (UTC), дата Ветер
(напр.,м/с)
 
Видим.   Явления Облачность Т
(С)
Тd
(С)
f
(%)
Тe
(С)
Тes
(С)
Комфортность P
(гПа)
Po
(гПа)
Тmin
(С)
Tmax
(С)
R
(мм)
R24
(мм)
S
(см)
18 11.10 СВ 3 10 км ясно +26.7 +19.3 64 +32 +32 очень
душно
1011.4 1010.3
21 11.10 С 4 10 км ясно +26.7 +19.3 64 +32 +32 очень
душно
1011.7 1010.6
00 12.10 С 2 10 км ясно +24.7 +19.3 72 +30 +30 очень
душно
1011.4 1010.3
03 12.10 СЗ 2 10 км ясно +23.4 +17.6 70 +29 +29 душно 1011.8 1010.7 +22.2
06 12.10 С 2 12 км ясно +36.2 +9.8 20 +35 +44 очень
жарко
1012.6 1011.5
09 12.10 ЮВ 4 15 км ясно +38.4 +9.7 18 +37 +46 очень
жарко
1011.0 1009.9
12 12.10 ЮЗ 5 15 км ясно +36.0 +12.7 25 +36 +38 очень
жарко
1009.7 1008.6
15 12.10 З 2 15 км ясно +32.7 +17.5 40 +32 +32 жарко 1009.9 1008.8 +38.5
18 12.10 СВ 2 12 км ясно +28.1 +21.1 66 +35 +35 очень
душно
1011.3 1010.2
21 12.10 СВ 3 10 км ясно +25.9 +20.3 71 +32 +32 очень
душно
1011.8 1011.0
00 13.10 С 2 10 км ясно +22.8 +16.8 69 +28 +28 душно 1012.1 1011.0
03 13.10 С 1 15 км ясно +21.4 +16.3 73 +25 +25 комфорт 1013.2 1012.1 +20.9
06 13.10 С 2 15 км ясно +34.4 +14.6 31 +36 +45 душно 1014.2 1013.1
09 13.10 Ю 6 15 км ясно +34.4 +21.0 46 +42 +47 опасность
перегрева
1012.8 1011.7
12 13.10 ЮЗ 5 12 км мгла ясно +35.9 +24.9 53 +36 +38 очень
жарко
1011.4 1010.3
15 13.10 Ю 4 10 км ясно +29.9 +25.7 78 +44 +44 опасность
перегрева
1011.9 1010.8 +36.6
18 13.10 С 3 10 км ясно +27.1 +22.6 76 +36 +36 очень
душно
1014.0 1012.9
21 13.10 С 3 8000 м дымка ясно +26.4 +23.2 83 +36 +36 очень
душно
1013.6 1012.5
00 14.10 штиль 0 3000 м дымка ясно +24.4 +22.6 90 +32 +32 очень
душно
1013.3 1012.1
03 14.10 С 2 5000 м дымка 3/0
[Ac trans]
+22.2 +21.0 93 +29 +29 очень
душно
1014.0 1012.8 +21.9
06 14.10 Ю 4 10 км мгла 1/0
[Ac trans]
+33.1 +16.0 36 +36 +42 очень
душно
1015.4 1014.3
09 14.10 ЮЗ 4 10 км ясно +34.5 +19.3 41 +40 +49 очень
душно
1014.0 1012.9
12 14.10 ЮЗ 4 10 км ясно +33.6 +22.6 53 +43 +46 опасность
перегрева
1011.8 1010.7
15 14.10 Ю 3 10 км 1/0
[Ac trans]
+30.4 +24.3 70 +42 +42 опасность
перегрева
1012.1 1011.0 +35.2
18 14.10 Ю 2 10 км ясно +28.1 +21.6 68 +36 +36 очень
душно
1013.5 1012.4
21 14.10 В 2 8000 м зарница 1/1 900 м
[Cb cap]
+26.2 +21.7 76 +34 +34 очень
душно
1013.7 1012.6
00 15.10 З 2 8000 м дымка ясно +26.3 +23.2 83 +35 +35 очень
душно
1012.6 1011.5
03 15.10 СЗ 3 8000 м дымка 1/1 900 м
[Sc]
+24.7 +21.1 80 +31 +31 очень
душно
1013.4 1012.3 +23.9
06 15.10 ЮЗ 4 8000 м мгла ясно +32.4 +21.7 53 +41 +47 опасность
перегрева
1014.4 1013.3
09 15.10 Ю 5 8000 м мгла ясно +34.8 +17.8 37 +39 +46 очень
душно
1012.5 1011.4
12 15.10 Ю 6 7000 м мгла 3/0
[Ci fib]
+33.2 +23.6 57 +44 +46 опасность
перегрева
1010.9 1009.8
15 15.10 ЮЗ 6 5000 м мгла 8/5 750 м
[Cb calv Cs]
+31.0 +24.8 70 +44 +44 опасность
перегрева
1011.3 1010.2 +35.4
18 15.10 В 2 5000 м зарница 5/3 750 м
[Cb cap]
+30.0 +25.1 75 +43 +43 опасность
перегрева
1012.6 1011.5
21 15.10 З 2 4000 м зарница 4/1 750 м
[Cb cap]
+26.4 +16.0 53 +30 +30 душно 1012.5 1011.4
00 16.10 С 2 7000 м мгла ясно +26.6 +16.1 53 +30 +30 душно 1012.5 1011.4
03 16.10 СЗ 2 7000 м мгла 1/0
[Ci fib]
+25.4 +17.4 61 +29 +30 душно 1013.2 1012.1 +24.3
06 16.10 В 3 8000 м мгла ясно +32.4 +22.2 55 +41 +49 опасность
перегрева
1014.4 1013.3
09 16.10 ЮЗ 5 5000 м мгла 1/1 900 м
[Cu med, cong]
+33.2 +22.8 55 +43 +49 опасность
перегрева
1012.5 1011.4
12 16.10 Ю 6 5000 м мгла 5/1 900 м
[Cb calv]
+32.7 +25.6 66 +47 +48 опасность
перегрева
1010.6 1009.5
15 16.10 ЮЗ 4 4000 м мгла 6/0
[Cs]
+30.5 +25.8 76 +45 +45 опасность
перегрева
1011.6 1010.5 +34.4
18 16.10 СВ 5 800 м гроза без осадков {дождь} 10/3 750 м
[Cb cap]
+25.1 +17.4 62 +29 +29 душно 1014.4 1013.3 0.5
21 16.10 СЗ 2 5000 м мгла {гроза} 1/1 900 м
[Cb calv]
+24.5 +16.6 61 +28 +28 душно 1013.5 1012.4
00 17.10 СЗ 2 5000 м мгла ясно +22.1 +16.9 72 +26 +26 душно 1012.6 1011.5
03 17.10 С 2 5000 м мгла 1/0
[Ci fib]
+22.4 +15.4 65 +26 +26 жарко 1014.0 1012.9 +21.5
06 17.10 СВ 4 7000 м мгла 3/0
[Ac trans]
+33.2 +12.8 29 +34 +39 очень
жарко
1014.7 1013.5
09 17.10 В 6 6000 м мгла ясно +36.6 +12.1 23 +36 +41 очень
жарко
1012.3 1011.2
12 17.10 Ю 7 10 км 1/1 600 м
[Cu hum]
+35.1 +13.4 27 +36 +36 очень
жарко
1009.9 1008.8
15 17.10 З 2 10 км 3/0
[Ci sp]
+30.0 +17.7 48 +34 +34 очень
душно
1010.6 1009.5 +37.2
18 17.10 В 2 10 км ясно +26.6 +14.3 47 +29 +29 жарко 1011.9 1010.8
21 17.10 С 3 10 км ясно +24.4 +14.5 54 +27 +27 жарко 1011.9 1010.9
00 18.10 С 2 10 км ясно +23.3 +12.5 51 +26 +26 жарко 1011.7 1010.5
03 18.10 С 2 12 км 1/0
[Ac trans]
+21.6 +12.0 54 +24 +24 комфорт 1012.6 1011.4 +21.4
06 18.10 СВ 4 12 км ясно +34.1 +8.8 21 +33 +39 жарко 1013.8 1012.6
09 18.10 Ю 5 10 км ясно +36.6 +8.5 18 +35 +42 очень
жарко
1011.3 1010.2
12 18.10 Ю 6 10 км ясно +34.6 +12.9 27 +35 +36 очень
жарко
1009.8 1008.7

 

Местоположение метеостанции Bandarabbass (Иран): широта 27.22 долгота 56.37 высота над уровнем моря 10 м.

В архиве по умолчанию представлена погода в Bandarabbass за последнюю неделю. Архивные данные за месяц целиком и за предыдущие месяцы, начиная с января 2011 года, Вы можете получить, выбрав интересующий диапазон дат из раскрывающегося списка и нажав кнопку "Ввод!".


*Определитесь, кто Вы:
робот инопланетянин человек

Внимание! Время в таблицах - всемирное. Для получения местного времени необходимо прибавить поправку, которая в Bandarabbass равна 3.5 ч.

Смотрите также архив погоды в соседних городах и на ближайших метеорологических станциях:

Погода в Khasab (Оман) (113 км)
Погода в Khasab Airport (Оман) (118 км)
Погода в Kahnuj (Иран) (155 км)
Погода в Bandar Lengeh (Иран) (169 км)
Погода в Diba (Оман) (178 км)
Погода в Ras Al Khaimah Int Airport (ОАЭ) (183 км)
Погода в Abu Musa Island (Иран) (218 км)
Погода в Baft (Иран) (224 км)
Погода в Jask (Иран) (225 км)
Погода в Sharjah (ОАЭ) (227 км)

Пояснения к столбцам:

Ветер - указаны скорость ветра в м/с - средняя за 10 мин, порывы в срок и между сроками (в фигурных скобках) и направление, откуда дует ветер: С - северный, СВ - северо-восточный, В - восточный, ЮВ - юго-восточный, Ю - южный, ЮЗ - юго-западный, З - западный, СЗ - северо-западный.
Видимость - горизонтальная дальность видимости в метрах или километрах. При видимости от 1 до 10 км при отсутствии осадков обычно наблюдается дымка, при ухудшении видимости до 1 км и менее - туман. В сухую погоду видимость может ухудшаться дымом, пылью или мглою.
Явления - указаны атмосферные явления, наблюдавшиеся в срок или в последний час перед сроком; фигурными скобками обозначены явления, наблюдавшиеся между сроками (за 1-3 часа до срока); квадратными скобками обозначены град или гололедные отложения с указанием их диаметра в мм.
Облачность - указаны через наклонную черту общая и нижняя облачность в баллах и высота нижней границы облаков в метрах; квадратными скобками обозначены формы облаков: Ci - перистые, Cs - перисто-слоистые, Cc - перисто-кучевые, Ac - высококучевые, As - высокослоистые, Sc - слоисто-кучевые, Ns - слоисто-дождевые, Cu - кучевые, Cb - кучево-дождевые. Подробнее классификацию облаков см. в Атласе облаков (PDF).
T - Температура воздуха - температура, измеренная на высоте 2 м над землей.
Td - Температура точки росы - температура, при понижении до которой содержащийся в воздухе водяной пар достигнет насыщения.
f - Относительная влажность воздуха - влажноcть воздуха, измеренная на высоте 2 м над землей.
Te - Эффективная температура - температура, которую ощущает одетый по сезону человек в тени. Характеристика душности погоды. При расчете учитывается влияние влажности воздуха и скорости ветра на теплоощущения человека.
Tes - Эффективная температура на солнце - температура, которую ощущает человек, с поправкой на солнечный нагрев. Характеристика знойности погоды. Зависит от высоты солнца над горизонтом, облачности и скорости ветра. Ночью, в пасмурную погоду, а также при ветре 12 м/с и более поправка равна нулю.
P - Атмосферное давление - приведенное к уровню моря атмосферное давление.
Po - Атмосферное давление - измеренное на уровне метеостанции атмосферное давление.
Tmin - Минимальная температура - минимум температуры воздуха на высоте 2 м над землей.
Tmax - Максимальная температура - максимум температуры воздуха на высоте 2 м над землей.
R - Количество осадков - Количество выпавших осадков за период времени, мм. При наведении курсора мыши на число - период времени, за который выпало указанное количество осадков.
R24 - Количество осадков - Количество выпавших осадков за 24 часа, мм.
S - Снежный покров - Высота снежного покрова, см. При наведении курсора мыши на число - состояние снежного покрова и степень покрытия местности в баллах.